This is the latest recevied weather packets stored in our database for station/object KF4ERV-4. If no packets are shown the sender has not sent any weather packets the latest 10 day(s).
| Time | Temp. | Humidity | Pressure | Rain* | Wind** | Luminosity | Snow |
|---|---|---|---|---|---|---|---|
| 1787414370 | 28.89° C | 54% | 1014.9 hPa | 0 mm | - | - | - |
| 1787414293 | 28.33° C | 52% | 1015 hPa | 0 mm | - | - | - |
| 1787414071 | 28.33° C | 52% | 1015 hPa | 0 mm | - | - | - |
| 1787414004 | 28.33° C | 52% | 1014.9 hPa | 0 mm | - | - | - |
| 1787413764 | 28.33° C | 52% | 1014.9 hPa | 0 mm | - | - | - |
| 1787413714 | 28.33° C | 51% | 1014.9 hPa | 0 mm | - | - | - |
| 1787413422 | 28.33° C | 51% | 1014.9 hPa | 0 mm | - | - | - |
| 1787413169 | 28.33° C | 51% | 1014.9 hPa | 0 mm | - | - | - |
| 1787413131 | 28.33° C | 50% | 1015 hPa | 0 mm | - | - | - |
| 1787412842 | 27.78° C | 49% | 1015.6 hPa | 0 mm | - | - | - |
| 1787412564 | 27.78° C | 49% | 1015.6 hPa | 0 mm | - | - | - |
| 1787412272 | 27.78° C | 48% | 1015.8 hPa | 0 mm | - | - | - |
| 1787411662 | 27.22° C | 46% | 1016 hPa | 0 mm | - | - | - |
| 1787411392 | 27.22° C | 45% | 1015.7 hPa | 0 mm | - | - | - |
| 1787410814 | 26.67° C | 40% | 1015 hPa | 0 mm | - | - | - |
| 1787410527 | 26.67° C | 35% | 1015 hPa | 0 mm | - | - | - |
| 1787410232 | 26.11° C | 30% | 1014.9 hPa | 0 mm | - | - | - |
| 1787410170 | 26.11° C | 30% | 1014.9 hPa | 0 mm | - | - | - |
| 1787409870 | 26.11° C | 26% | 1014.9 hPa | 0 mm | - | - | - |
| 1787409651 | 25.56° C | 21% | 1014.9 hPa | 0 mm | - | - | - |
| 1787409362 | 25.56° C | 17% | 1014.9 hPa | 0 mm | - | - | - |
| 1787409270 | 25.56° C | 17% | 1014.9 hPa | 0 mm | - | - | - |
| 1787409071 | 25.56° C | 11% | 1015 hPa | 0 mm | - | - | - |
| 1787408670 | 25° C | 9% | 1015 hPa | 0 mm | - | - | - |
| 1787408493 | 25° C | 7% | 1015.1 hPa | 0 mm | - | - | - |
* Rain latest hour (hover to see other rain measurements)
** Current wind speed in m/s (hover to see current wind gust speed)